FW6587 Weather Reports


Display with metric or nautical units.
time (UTC)temp
F
wind
direction
speed
MPH
gust
MPH
rain 1hr
in
rain 24hr
in
rain mn
in
humidity
%
barometer
mb
20260902024600 72 0 0.0 0.0 0.00 0.13 0.03 45 1028.2
20260902023058 73 0 0.0 0.0 0.00 0.13 0.03 44 1028.0
20260902021637 74 0 0.0 0.0 0.00 0.13 0.03 42 1027.7
20260902020059 75 0 0.0 0.0 0.00 0.13 0.03 41 1027.6
20260902014617 75 0 0.0 0.0 0.00 0.14 0.03 40 1027.6
20260902013059 76 0 0.0 1.0 0.00 0.14 0.03 40 1027.6
20260902011605 76 0 0.0 3.0 0.00 0.14 0.03 41 1027.3
20260902010108 77 0 0.0 4.0 0.00 0.14 0.03 42 1027.3
20260902004601 80 0 0.0 0.0 0.00 0.15 0.03 34 1027.3
20260902003100 81 0 0.0 0.0 0.00 0.15 0.03 32 1027.0
20260902001602 81 0 0.0 1.0 0.00 0.15 0.03 33 1027.1
20260902000105 82 0 0.0 1.0 0.00 0.15 0.03 31 1027.1
20260901234604 83 0 0.0 2.0 0.00 0.15 0.03 32 1027.2
20260901233110 84 0 0.0 3.0 0.00 0.15 0.03 31 1027.1
20260901231602 84 0 0.0 2.0 0.00 0.15 0.03 31 1027.1
20260901224558 86 0 1.0 3.0 0.00 0.15 0.03 27 1027.1
20260901223111 85 0 0.0 3.0 0.00 0.15 0.03 30 1027.3
20260901221554 83 275 0.0 7.0 0.00 0.15 0.03 29 1027.4
20260901220107 85 0 0.0 3.0 0.00 0.15 0.03 29 1027.7
20260901214600 85 0 1.0 6.0 0.00 0.15 0.03 28 1027.7
20260901213102 85 44 0.0 4.0 0.00 0.15 0.03 31 1027.8
20260901211604 84 0 0.0 2.0 0.00 0.15 0.03 30 1027.9
20260901210114 85 76 0.0 6.0 0.00 0.15 0.03 28 1028.1
20260901204602 86 96 1.0 5.0 0.00 0.15 0.03 28 1027.9
20260901203116 87 0 1.0 4.0 0.00 0.15 0.03 30 1028.1
20260901201601 86 0 2.0 11.0 0.00 0.15 0.03 28 1028.2
20260901200105 85 117 2.0 10.0 0.00 0.15 0.03 30 1028.3
20260901194603 85 90 1.0 7.0 0.00 0.15 0.03 30 1028.5
20260901193058 84 44 2.0 7.0 0.00 0.15 0.03 32 1028.7
20260901191559 85 47 1.0 11.0 0.00 0.15 0.03 34 1028.8
20260901190113 84 90 2.0 7.0 0.00 0.15 0.03 34 1029.0
20260901184604 83 85 1.0 10.0 0.00 0.15 0.03 35 1029.2
20260901183051 81 116 1.0 7.0 0.00 0.15 0.03 35 1029.2
20260901181557 81 83 1.0 9.0 0.00 0.15 0.03 36 1029.6
20260901180052 81 132 1.0 7.0 0.00 0.15 0.03 39 1029.6
20260901174622 80 134 2.0 9.0 0.00 0.15 0.03 41 1029.9
20260901173058 79 101 1.0 9.0 0.00 0.15 0.03 44 1029.9
20260901171558 78 90 2.0 8.0 0.00 0.15 0.03 50 1030.1
20260901164602 76 96 0.0 6.0 0.00 0.15 0.03 51 1030.4
20260901163100 74 58 2.0 8.0 0.01 0.15 0.03 55 1030.4
20260901161610 73 0 0.0 4.0 0.01 0.15 0.03 58 1030.4
20260901154601 67 0 0.0 0.0 0.01 0.15 0.03 82 1030.6
20260901153102 64 0 0.0 0.0 0.00 0.14 0.02 86 1030.6
20260901151553 62 0 0.0 0.0 0.00 0.14 0.02 89 1030.3
20260901150116 61 0 0.0 0.0 0.00 0.14 0.02 89 1030.4
20260901144604 60 0 0.0 0.0 0.00 0.14 0.02 89 1030.3
20260901143123 60 0 0.0 0.0 0.00 0.14 0.02 89 1030.5
20260901141611 59 0 0.0 0.0 0.00 0.14 0.02 88 1030.4
20260901140055 58 0 0.0 0.0 0.00 0.14 0.02 88 1030.4
20260901134547 58 0 0.0 0.0 0.00 0.14 0.02 88 1030.2
20260901133105 58 0 0.0 0.0 0.00 0.14 0.02 88 1030.3
20260901131605 58 0 0.0 0.0 0.00 0.14 0.02 88 1030.0
20260901124558 58 0 0.0 0.0 0.00 0.14 0.02 88 1029.3
20260901123052 58 0 0.0 0.0 0.00 0.14 0.02 87 1029.0
20260901121555 58 0 0.0 0.0 0.00 0.14 0.02 87 1028.8
20260901120121 58 0 0.0 0.0 0.00 0.14 0.02 87 1029.2
20260901114601 58 0 0.0 0.0 0.00 0.14 0.02 87 1029.0
20260901113100 59 0 0.0 0.0 0.00 0.14 0.02 87 1029.2
20260901111603 59 0 0.0 0.0 0.00 0.14 0.02 87 1029.1
20260901110057 59 0 0.0 0.0 0.00 0.14 0.02 87 1029.5
20260901104605 59 0 0.0 0.0 0.00 0.14 0.02 87 1029.5
20260901103110 59 0 0.0 0.0 0.00 0.14 0.02 86 1029.6
20260901101608 59 0 0.0 0.0 0.00 0.14 0.02 86 1029.8
20260901094600 60 0 0.0 0.0 0.00 0.14 0.02 86 1030.1
20260901093100 60 0 0.0 0.0 0.00 0.14 0.02 86 1030.1
20260901091605 60 0 0.0 0.0 0.00 0.14 0.02 87 1030.4
20260901090100 60 0 0.0 0.0 0.00 0.14 0.02 87 1030.4
20260901084602 60 0 0.0 0.0 0.00 0.14 0.02 87 1030.4
20260901083057 61 0 0.0 0.0 0.00 0.14 0.02 87 1030.6
20260901081554 61 0 0.0 0.0 0.00 0.14 0.02 87 1030.6
20260901080107 61 0 0.0 0.0 0.00 0.14 0.02 87 1030.8
20260901074602 61 0 0.0 0.0 0.00 0.14 0.02 87 1031.1
20260901073055 61 0 0.0 0.0 0.00 0.14 0.02 86 1031.0
20260901071608 61 0 0.0 0.0 0.01 0.14 0.02 86 1031.0
20260901070051 61 0 0.0 0.0 0.02 0.14 0.02 86 1031.2
20260901064600 61 0 0.0 0.0 0.02 0.14 0.02 85 1031.5
20260901063057 61 0 0.0 0.0 0.02 0.14 0.02 85 1031.1
20260901061558 61 0 0.0 0.0 0.01 0.13 0.01 85 1030.9
20260901060054 61 0 0.0 0.0 0.00 0.12 0.00 84 1031.4
20260901054606 61 0 0.0 0.0 0.00 0.12 0.12 84 1031.0
20260901053111 61 0 0.0 0.0 0.00 0.12 0.12 84 1030.6
20260901051604 62 0 0.0 0.0 0.00 0.12 0.12 84 1031.0
20260901044609 62 0 0.0 0.0 0.00 0.12 0.12 83 1031.0
20260901043126 62 0 0.0 0.0 0.00 0.12 0.12 83 1031.2
20260901041551 63 0 0.0 0.0 0.00 0.12 0.12 83 1031.2
20260901040132 63 0 0.0 0.0 0.01 0.12 0.12 83 1031.2
20260901034601 63 0 0.0 0.0 0.01 0.12 0.12 82 1031.4
20260901033110 64 0 0.0 1.0 0.05 0.12 0.12 81 1030.9
20260901031618 64 0 0.0 0.0 0.08 0.12 0.12 79 1031.0
20260901030055 65 0 0.0 0.0 0.09 0.11 0.11 77 1032.1